TimeCDT,TemperatureF,Dew PointF,Humidity,Sea Level PressureIn,VisibilityMPH,Wind Direction,Wind SpeedMPH,Gust SpeedMPH,PrecipitationIn,Events,Conditions,WindDirDegrees,DateUTC
12:15 AM,77.0,46.4,34,30.15,10.0,NE,6.9,-,N/A,,Clear,40,2013-06-30 05:15:00
12:35 AM,73.4,46.4,38,30.15,10.0,NNE,9.2,-,N/A,,Clear,30,2013-06-30 05:35:00
12:55 AM,73.4,46.4,38,30.15,10.0,Calm,Calm,-,N/A,,Clear,0,2013-06-30 05:55:00
1:15 AM,71.6,48.2,43,30.16,10.0,Calm,Calm,-,N/A,,Clear,0,2013-06-30 06:15:00
1:35 AM,69.8,48.2,46,30.15,10.0,Calm,Calm,-,N/A,,Clear,0,2013-06-30 06:35:00
1:55 AM,66.2,50.0,56,30.15,10.0,NNE,4.6,-,N/A,,Clear,30,2013-06-30 06:55:00
2:15 AM,66.2,48.2,52,30.15,10.0,NNE,5.8,-,N/A,,Clear,20,2013-06-30 07:15:00
2:35 AM,68.0,46.4,46,30.14,10.0,NNE,8.1,-,N/A,,Clear,20,2013-06-30 07:35:00
2:55 AM,68.0,46.4,46,30.14,10.0,NNE,6.9,-,N/A,,Clear,20,2013-06-30 07:55:00
3:15 AM,66.2,48.2,52,30.14,10.0,Calm,Calm,-,N/A,,Clear,0,2013-06-30 08:15:00
3:35 AM,66.2,46.4,49,30.14,10.0,NNE,11.5,-,N/A,,Scattered Clouds,20,2013-06-30 08:35:00
3:55 AM,75.2,46.4,36,30.14,10.0,NNE,15.0,20.7,N/A,,Scattered Clouds,30,2013-06-30 08:55:00
4:15 AM,75.2,46.4,36,30.15,10.0,NE,20.7,26.5,N/A,,Clear,50,2013-06-30 09:15:00
4:35 AM,73.4,46.4,38,30.15,10.0,ENE,19.6,25.3,N/A,,Clear,60,2013-06-30 09:35:00
4:55 AM,73.4,46.4,38,30.15,10.0,NE,19.6,23.0,N/A,,Clear,50,2013-06-30 09:55:00
5:15 AM,71.6,46.4,41,30.16,10.0,NE,15.0,18.4,N/A,,Clear,50,2013-06-30 10:15:00
5:35 AM,73.4,46.4,38,30.16,10.0,NNE,13.8,-,N/A,,Clear,30,2013-06-30 10:35:00
5:55 AM,73.4,46.4,38,30.16,10.0,NNE,17.3,21.9,N/A,,Clear,30,2013-06-30 10:55:00
6:15 AM,71.6,46.4,41,30.17,10.0,NNE,17.3,25.3,N/A,,Clear,20,2013-06-30 11:15:00
6:35 AM,71.6,46.4,41,30.17,10.0,NNE,21.9,28.8,N/A,,Clear,30,2013-06-30 11:35:00
6:55 AM,71.6,48.2,43,30.17,10.0,NE,17.3,26.5,N/A,,Clear,40,2013-06-30 11:55:00
7:15 AM,71.6,48.2,43,30.17,10.0,NE,12.7,19.6,N/A,,Clear,50,2013-06-30 12:15:00
7:35 AM,71.6,48.2,43,30.18,10.0,NNE,9.2,-,N/A,,Clear,30,2013-06-30 12:35:00
7:55 AM,71.6,48.2,43,30.18,10.0,NNW,12.7,-,N/A,,Clear,340,2013-06-30 12:55:00
8:15 AM,71.6,50.0,46,30.18,10.0,North,11.5,-,N/A,,Clear,360,2013-06-30 13:15:00
8:35 AM,73.4,51.8,47,30.19,10.0,NNE,8.1,-,N/A,,Clear,20,2013-06-30 13:35:00
8:55 AM,73.4,51.8,47,30.19,10.0,North,8.1,-,N/A,,Clear,10,2013-06-30 13:55:00
9:15 AM,73.4,51.8,47,30.20,10.0,NE,9.2,-,N/A,,Clear,50,2013-06-30 14:15:00
9:35 AM,75.2,51.8,44,30.20,10.0,ENE,5.8,-,N/A,,Clear,60,2013-06-30 14:35:00
9:55 AM,77.0,51.8,41,30.20,10.0,East,10.4,-,N/A,,Clear,100,2013-06-30 14:55:00
10:15 AM,77.0,51.8,41,30.19,10.0,ENE,8.1,-,N/A,,Clear,60,2013-06-30 15:15:00
10:35 AM,77.0,53.6,44,30.20,10.0,NE,5.8,-,N/A,,Clear,40,2013-06-30 15:35:00
10:55 AM,78.8,53.6,42,30.20,10.0,SE,4.6,-,N/A,,Clear,130,2013-06-30 15:55:00
11:15 AM,78.8,53.6,42,30.20,10.0,ESE,5.8,-,N/A,,Clear,120,2013-06-30 16:15:00
11:35 AM,78.8,51.8,39,30.20,10.0,SE,3.5,-,N/A,,Clear,130,2013-06-30 16:35:00
11:55 AM,78.8,53.6,42,30.21,10.0,East,4.6,-,N/A,,Scattered Clouds,100,2013-06-30 16:55:00
12:15 PM,80.6,53.6,39,30.21,10.0,NE,4.6,-,N/A,,Scattered Clouds,40,2013-06-30 17:15:00
12:35 PM,78.8,51.8,39,30.21,10.0,North,5.8,-,N/A,,Partly Cloudy,350,2013-06-30 17:35:00
12:55 PM,80.6,51.8,37,30.20,10.0,ENE,3.5,-,N/A,,Mostly Cloudy,60,2013-06-30 17:55:00
1:15 PM,80.6,51.8,37,30.19,10.0,East,3.5,-,N/A,,Scattered Clouds,90,2013-06-30 18:15:00
1:35 PM,80.6,51.8,37,30.18,10.0,Calm,Calm,-,N/A,,Partly Cloudy,0,2013-06-30 18:35:00
1:55 PM,80.6,51.8,37,30.18,10.0,East,8.1,-,N/A,,Mostly Cloudy,80,2013-06-30 18:55:00
2:15 PM,78.8,51.8,39,30.18,10.0,NE,8.1,-,N/A,,Mostly Cloudy,50,2013-06-30 19:15:00
2:35 PM,80.6,53.6,39,30.18,10.0,NE,10.4,-,N/A,,Mostly Cloudy,50,2013-06-30 19:35:00
2:55 PM,80.6,53.6,39,30.18,10.0,ENE,9.2,-,N/A,,Mostly Cloudy,60,2013-06-30 19:55:00
3:15 PM,80.6,51.8,37,30.18,10.0,East,8.1,-,N/A,,Mostly Cloudy,80,2013-06-30 20:15:00
3:35 PM,82.4,53.6,37,30.17,10.0,ENE,10.4,-,N/A,,Mostly Cloudy,60,2013-06-30 20:35:00
3:55 PM,84.2,53.6,35,30.16,10.0,ESE,8.1,-,N/A,,Partly Cloudy,110,2013-06-30 20:55:00
4:15 PM,84.2,53.6,35,30.15,10.0,East,8.1,16.1,N/A,,Clear,80,2013-06-30 21:15:00
4:35 PM,84.2,53.6,35,30.15,10.0,SSE,5.8,-,N/A,,Partly Cloudy,150,2013-06-30 21:35:00
4:55 PM,84.2,51.8,33,30.13,10.0,East,11.5,16.1,N/A,,Partly Cloudy,100,2013-06-30 21:55:00
5:15 PM,84.2,51.8,33,30.13,10.0,SE,10.4,-,N/A,,Partly Cloudy,140,2013-06-30 22:15:00
5:35 PM,84.2,50.0,30,30.13,10.0,East,6.9,16.1,N/A,,Partly Cloudy,90,2013-06-30 22:35:00
5:55 PM,86.0,51.8,31,30.12,10.0,East,9.2,-,N/A,,Clear,90,2013-06-30 22:55:00
6:15 PM,86.0,51.8,31,30.11,10.0,East,10.4,16.1,N/A,,Partly Cloudy,90,2013-06-30 23:15:00
6:35 PM,84.2,51.8,33,30.11,10.0,ENE,10.4,-,N/A,,Clear,60,2013-06-30 23:35:00
6:55 PM,84.2,50.0,30,30.10,10.0,NE,15.0,18.4,N/A,,Clear,50,2013-06-30 23:55:00
7:15 PM,84.2,50.0,30,30.10,10.0,ENE,8.1,-,N/A,,Partly Cloudy,70,2013-07-01 00:15:00
7:35 PM,84.2,50.0,30,30.10,10.0,ENE,9.2,17.3,N/A,,Partly Cloudy,60,2013-07-01 00:35:00
7:55 PM,82.4,50.0,32,30.10,10.0,ENE,11.5,16.1,N/A,,Clear,70,2013-07-01 00:55:00
8:15 PM,82.4,48.2,30,30.10,10.0,East,11.5,-,N/A,,Clear,80,2013-07-01 01:15:00
8:35 PM,82.4,50.0,32,30.10,10.0,ENE,12.7,-,N/A,,Clear,70,2013-07-01 01:35:00
8:55 PM,80.6,50.0,34,30.11,10.0,ENE,10.4,-,N/A,,Clear,70,2013-07-01 01:55:00
9:15 PM,78.8,50.0,36,30.12,10.0,ENE,8.1,-,N/A,,Clear,60,2013-07-01 02:15:00
9:35 PM,75.2,50.0,41,30.13,10.0,ENE,6.9,-,N/A,,Clear,60,2013-07-01 02:35:00
9:55 PM,73.4,50.0,44,30.14,10.0,East,9.2,-,N/A,,Clear,100,2013-07-01 02:55:00
10:15 PM,73.4,51.8,47,30.15,10.0,ESE,10.4,-,N/A,,Clear,120,2013-07-01 03:15:00
10:35 PM,73.4,53.6,50,30.16,10.0,East,12.7,-,N/A,,Clear,100,2013-07-01 03:35:00
10:55 PM,73.4,53.6,50,30.17,10.0,East,9.2,-,N/A,,Clear,100,2013-07-01 03:55:00
11:15 PM,71.6,53.6,53,30.18,10.0,ESE,6.9,-,N/A,,Clear,120,2013-07-01 04:15:00
11:35 PM,69.8,53.6,56,30.18,10.0,ESE,3.5,-,N/A,,Clear,110,2013-07-01 04:35:00
11:55 PM,71.6,51.8,50,30.18,10.0,NE,5.8,-,N/A,,Clear,50,2013-07-01 04:55:00